Wind_Speed
23 25 27 29 31 33 34 35 36 37 38 40 39 39 38 38 37 35 34 34 31 31 30 28 26 24 22 20 18 18 18 18 19 19 19 19 19 19 18 18 17 16 15 15
21 23 25 28 31 33 35 37 38 39 40 42 42 40 38 38 38 35 35 35 33 32 30 29 27 26 24 22 22 22 21 21 20 21 21 20 20 19 19 18 18 17 17 17
17 21 24 26 29 31 34 37 39 40 41 43 44 42 38 37 37 36 34 33 31 30 30 29 28 27 25 23 23 24 25 24 23 23 22 21 20 18 18 18 18 18 19 19
14 18 22 25 28 31 33 35 38 40 41 41 41 42 36 36 35 35 33 31 30 29 29 29 29 27 26 26 25 26 27 26 25 24 22 21 19 17 17 17 18 20 21 22
11 15 19 21 24 28 31 32 34 36 37 38 36 38 34 34 34 33 32 30 29 27 28 29 29 29 28 27 28 28 28 26 25 24 22 21 19 18 18 19 20 22 23 24
12 17 21 23 26 29 31 32 33 33 33 32 30 31 30 30 31 30 31 30 28 28 29 30 31 31 30 29 30 30 26 24 23 23 21 20 20 20 20 22 23 24 24 25
16 21 26 28 30 32 34 35 36 34 30 28 25 26 26 26 26 27 27 28 27 29 30 31 31 30 29 30 31 29 24 22 21 20 19 19 20 21 22 23 24 24 25 25
21 24 29 32 35 37 37 36 36 35 32 26 24 24 24 22 22 23 23 24 26 27 29 29 29 29 30 31 30 26 21 18 18 17 17 18 20 22 23 23 24 24 24 23
30 31 33 37 40 41 40 38 36 36 33 28 24 23 24 23 20 21 21 21 22 24 25 27 28 27 28 28 23 18 17 16 15 16 18 20 21 22 23 23 23 23 23 23
37 40 41 43 43 42 42 38 35 34 32 28 24 23 23 22 20 19 20 20 20 22 25 26 25 26 26 23 19 16 14 13 14 17 19 21 22 23 22 22 22 21 21 21
43 45 45 43 40 36 33 32 32 31 29 27 24 22 20 18 16 16 17 20 21 22 24 26 25 25 23 18 15 14 13 14 16 19 20 22 22 21 21 21 20 19 20 20
44 44 38 32 27 24 21 22 25 27 28 25 23 20 14 14 14 14 14 17 19 21 22 22 21 16 14 10 9 11 13 15 18 20 21 22 21 20 20 20 20 19 19 20
42 35 27 21 18 15 13 14 17 20 22 22 19 16 14 10 8 8 8 9 11 9 8 8 7 6 6 7 9 11 14 17 19 21 22 22 20 20 19 20 20 20 20 20
35 29 23 20 15 9 5 5 8 10 13 14 11 7 6 5 6 6 6 5 6 6 4 2 2 4 7 10 12 14 16 19 20 22 23 22 20 18 18 19 19 19 19 20
31 25 20 17 13 9 7 3 3 5 9 9 7 5 4 4 5 6 5 6 6 7 8 7 7 8 10 12 14 15 17 19 20 21 22 20 18 17 18 19 20 20 19 19
29 23 19 15 12 10 9 8 7 8 9 7 5 3 2 2 3 4 4 5 6 7 9 10 11 11 12 13 15 16 17 18 20 20 21 20 18 17 18 19 20 20 20 20
26 23 20 16 12 11 11 11 11 10 9 6 4 2 1 0 2 2 2 2 4 5 7 8 9 9 10 11 13 15 15 17 18 19 18 18 18 18 19 19 20 21 22 22
25 20 18 16 14 13 13 12 11 10 9 9 7 6 5 4 4 3 1 0 1 2 2 3 4 5 6 8 10 11 12 14 16 17 17 18 19 19 19 20 22 22 23 23
23 18 15 15 14 12 11 11 10 11 10 10 9 7 6 6 5 4 4 3 2 4 3 2 1 1 3 6 8 10 12 14 16 17 18 19 19 20 20 21 22 22 22 22
22 16 14 13 12 12 11 10 10 10 9 9 8 8 7 7 6 6 6 6 5 5 5 4 2 2 4 7 9 11 13 15 16 17 18 18 19 20 21 21 21 21 21 20
23 17 12 11 10 10 10 9 9 9 9 8 8 8 7 8 7 8 8 7 6 6 5 4 4 6 7 9 11 12 14 16 17 18 18 19 21 21 21 21 21 20 19 18
24 18 12 10 8 8 8 8 9 10 9 8 8 8 8 8 9 8 8 7 6 5 5 6 7 8 10 11 12 14 15 16 17 18 19 20 20 20 20 20 19 18 18 17
26 18 12 10 8 7 7 8 8 8 8 8 8 8 9 9 8 8 8 7 6 7 8 9 10 11 11 12 13 14 15 16 17 18 19 19 19 19 18 18 17 17 17 17
28 20 12 9 8 6 6 7 7 8 7 7 7 8 8 7 7 7 7 7 7 8 10 11 11 12 12 13 14 15 16 17 17 18 18 17 17 16 16 15 15 15 16 16
30 24 15 9 7 6 6 6 6 7 7 8 8 9 8 8 7 6 6 7 8 9 10 11 12 13 14 14 15 15 16 16 16 16 15 15 15 14 14 13 14 14 14 14
31 25 18 10 6 5 5 5 7 8 8 7 8 8 8 8 7 6 6 7 8 10 11 12 13 14 14 15 16 16 16 15 15 15 14 14 14 13 13 13 13 13 13 13
Wind_Direction
250 253 255 258 260 262 263 264 265 265 265 265 266 267 268 272 274 272 273 275 277 277 276 275 277 279 281 282 280 277 274 272 270 271 272 273 277 280 279 282 285 282 281 285
257 258 261 263 264 265 266 267 268 267 267 268 267 268 271 273 273 270 272 273 275 272 270 270 271 272 276 279 279 278 275 273 274 275 276 277 279 279 278 280 283 285 284 286
264 263 264 265 267 268 268 268 268 268 268 269 270 269 269 269 269 269 271 270 270 269 267 266 266 267 270 272 274 276 275 275 276 277 279 279 279 277 277 279 282 285 286 286
265 267 269 270 270 271 269 269 269 269 269 268 268 268 264 264 263 264 265 266 268 266 264 263 262 263 265 265 268 270 273 273 275 277 279 279 278 276 277 280 283 286 287 286
282 280 280 280 281 280 278 277 275 274 273 272 270 270 265 260 258 258 259 261 264 260 259 259 257 256 257 260 261 260 261 264 268 273 277 277 278 279 280 283 285 286 287 286
300 295 295 296 296 294 291 289 287 284 283 280 274 270 266 259 256 255 255 256 255 252 252 252 249 247 249 251 251 251 251 255 262 268 272 273 277 281 284 286 288 288 287 285
306 305 301 299 298 296 294 292 291 288 285 283 276 269 264 261 256 252 251 249 247 245 243 244 242 241 242 244 245 245 246 252 256 262 267 271 276 280 284 287 288 287 285 282
303 303 302 300 296 292 289 286 284 284 283 279 272 267 263 259 252 249 246 240 237 236 236 235 236 237 238 240 240 241 246 249 253 259 266 272 278 283 286 287 287 286 284 281
307 302 298 295 291 287 283 278 276 273 274 272 268 266 262 260 254 244 237 232 230 229 232 231 230 230 232 235 236 234 240 247 254 262 269 275 280 283 285 286 286 284 282 280
311 306 302 295 289 283 278 272 265 262 261 263 265 263 261 258 257 244 235 234 232 233 233 230 226 225 223 223 224 230 239 248 257 266 271 277 282 285 287 288 286 284 283 280
315 311 309 303 297 288 276 266 257 252 251 253 257 260 259 257 257 256 245 239 241 237 235 233 228 220 213 212 220 231 240 252 262 269 274 280 285 287 288 288 287 287 284 281
319 318 316 313 307 298 281 261 248 245 244 248 252 253 258 262 264 266 260 249 248 240 238 232 230 222 202 194 212 227 245 259 268 274 279 282 284 286 287 287 288 287 285 281
328 330 329 324 315 305 287 263 248 245 240 240 243 247 258 270 272 274 270 255 257 254 234 226 218 210 197 205 224 240 252 263 271 276 279 281 281 283 284 286 289 288 286 283
339 341 343 343 343 339 309 272 241 235 227 224 219 224 255 281 309 304 295 283 279 274 267 273 232 215 219 228 237 247 256 266 273 277 279 281 283 283 286 289 290 289 288 285
350 353 355 356 0 16 21 54 148 160 166 164 174 213 259 295 303 309 299 291 284 271 267 267 254 245 245 247 252 259 265 269 274 277 281 284 283 287 292 293 292 291 288 286
3 9 12 14 23 38 49 82 111 115 134 146 166 195 270 300 298 301 296 275 260 256 259 261 262 261 260 262 266 269 271 274 276 278 285 289 293 293 295 295 295 294 293 290
13 19 23 28 39 51 61 76 96 112 120 130 132 122 74 71 10 330 303 265 247 249 252 254 255 257 262 266 270 273 275 278 284 286 291 298 299 298 299 299 298 297 296 293
16 23 31 41 51 59 64 76 86 97 105 108 109 115 113 101 72 65 63 34 206 200 213 229 243 258 266 270 270 274 281 286 289 293 296 299 301 301 300 300 299 298 296 293
22 28 34 44 49 54 62 70 84 94 97 105 103 106 103 96 83 74 71 71 91 122 127 134 160 265 282 285 286 288 289 290 292 294 295 297 298 300 300 300 300 299 297 294
22 29 39 46 46 56 66 74 85 93 98 101 102 101 95 98 90 86 86 88 93 96 95 82 41 333 310 302 298 296 295 295 298 299 299 300 301 302 302 302 301 300 298 294
23 30 40 48 52 58 71 81 88 93 98 98 104 108 108 106 99 96 90 83 75 65 54 31 2 337 323 316 312 309 307 306 306 305 305 305 305 304 304 303 303 301 298 295
21 27 41 51 59 67 77 88 92 96 95 99 104 106 112 112 104 96 87 77 64 45 23 3 348 338 330 325 322 319 316 313 311 309 308 307 307 306 306 305 304 302 300 297
17 22 36 49 61 77 87 94 100 105 97 97 108 111 115 116 109 98 85 69 48 24 6 356 348 343 338 332 329 326 323 319 316 313 312 310 309 308 308 308 307 305 303 301
17 20 30 42 53 74 97 98 108 113 108 99 107 120 125 120 110 96 80 59 36 15 3 356 352 349 346 341 337 333 329 325 321 318 317 318 317 316 315 313 312 311 310 308
13 16 23 34 46 71 102 109 110 123 115 107 110 125 130 122 109 92 68 47 28 14 6 2 359 354 350 347 343 340 336 333 330 329 328 330 331 332 330 327 324 321 319 317
13 14 19 29 43 68 96 117 118 126 120 117 122 132 128 119 104 81 54 33 21 16 11 5 0 357 355 354 352 350 348 347 346 346 346 347 349 349 347 343 339 335 333 331
Height
5857 5859 5858 5858 5857 5857 5857 5856 5856 5856 5855 5854 5854 5855 5856 5855 5855 5855 5855 5854 5854 5854 5853 5853 5853 5854 5856 5857 5857 5858 5858 5857 5857 5857 5856 5855 5855 5854 5853 5852 5851 5851 5850 5849
5853 5853 5852 5851 5850 5850 5848 5847 5847 5846 5845 5844 5845 5846 5848 5847 5846 5846 5846 5847 5847 5847 5847 5847 5847 5848 5849 5851 5851 5852 5852 5852 5852 5852 5851 5851 5850 5850 5849 5848 5847 5846 5845 5844
5848 5848 5846 5845 5843 5841 5840 5838 5837 5836 5835 5834 5833 5836 5839 5837 5836 5836 5837 5837 5838 5839 5840 5840 5840 5842 5843 5845 5845 5846 5846 5846 5846 5846 5846 5845 5844 5844 5844 5843 5842 5841 5840 5838
5843 5842 5840 5838 5836 5834 5831 5829 5827 5825 5824 5824 5823 5823 5829 5826 5825 5825 5826 5828 5830 5831 5832 5833 5833 5835 5836 5838 5839 5839 5839 5839 5839 5839 5840 5840 5840 5840 5839 5838 5837 5836 5834 5832
5840 5838 5835 5833 5830 5827 5824 5821 5819 5816 5814 5814 5813 5812 5816 5814 5814 5814 5816 5818 5822 5824 5825 5826 5827 5828 5830 5831 5832 5832 5832 5833 5834 5834 5834 5835 5835 5834 5834 5833 5831 5830 5828 5826
5837 5833 5829 5826 5823 5819 5815 5813 5810 5808 5806 5806 5805 5804 5804 5803 5804 5806 5807 5810 5814 5816 5818 5819 5820 5821 5822 5824 5824 5825 5825 5827 5828 5829 5830 5830 5830 5829 5828 5826 5825 5823 5821 5820
5833 5829 5823 5819 5814 5811 5806 5803 5800 5799 5798 5799 5798 5796 5796 5795 5796 5798 5799 5802 5805 5807 5809 5811 5812 5813 5815 5816 5817 5817 5819 5821 5823 5824 5825 5825 5825 5824 5822 5820 5819 5817 5815 5813
5828 5824 5817 5810 5804 5799 5796 5794 5792 5790 5790 5791 5791 5790 5790 5789 5789 5791 5792 5794 5796 5799 5801 5802 5804 5805 5807 5808 5809 5811 5814 5817 5819 5820 5820 5820 5819 5818 5816 5814 5813 5811 5809 5807
5819 5814 5808 5800 5792 5786 5783 5782 5781 5781 5781 5782 5784 5784 5783 5783 5783 5784 5786 5788 5790 5792 5794 5795 5795 5797 5799 5801 5803 5806 5810 5813 5815 5815 5815 5814 5813 5812 5810 5809 5807 5805 5803 5801
5807 5800 5794 5785 5778 5772 5768 5768 5770 5771 5772 5775 5777 5777 5777 5778 5778 5779 5780 5782 5784 5786 5788 5789 5788 5789 5791 5795 5799 5803 5807 5809 5810 5810 5809 5808 5807 5806 5804 5802 5800 5798 5796 5795
5795 5786 5777 5767 5760 5756 5756 5756 5758 5761 5764 5768 5770 5774 5772 5773 5774 5774 5775 5777 5779 5781 5782 5783 5783 5784 5787 5793 5797 5801 5803 5805 5804 5804 5803 5802 5801 5799 5798 5796 5794 5792 5790 5789
5784 5773 5763 5755 5749 5745 5745 5746 5749 5754 5758 5762 5765 5770 5767 5769 5770 5770 5771 5773 5774 5776 5777 5779 5781 5784 5787 5792 5795 5797 5799 5799 5798 5797 5796 5795 5794 5793 5791 5790 5788 5786 5785 5783
5774 5764 5756 5750 5747 5743 5741 5742 5744 5748 5752 5757 5761 5766 5765 5767 5768 5769 5769 5771 5772 5773 5775 5776 5779 5782 5785 5789 5791 5792 5793 5793 5793 5791 5790 5789 5788 5786 5785 5784 5782 5781 5779 5778
5768 5758 5752 5747 5742 5739 5739 5740 5742 5746 5749 5754 5758 5761 5763 5765 5766 5767 5768 5769 5770 5771 5773 5776 5778 5781 5784 5786 5787 5788 5788 5788 5787 5786 5784 5782 5781 5780 5779 5778 5776 5775 5774 5772
5766 5758 5751 5746 5742 5740 5740 5740 5743 5746 5749 5753 5757 5759 5762 5764 5765 5766 5766 5767 5768 5769 5771 5773 5775 5778 5780 5781 5783 5783 5783 5783 5782 5780 5778 5776 5774 5774 5773 5772 5771 5770 5768 5767
5766 5759 5753 5749 5746 5745 5744 5744 5745 5748 5751 5754 5757 5760 5762 5763 5764 5765 5765 5766 5767 5768 5769 5770 5772 5773 5775 5776 5777 5778 5778 5778 5776 5774 5773 5771 5770 5769 5768 5767 5765 5764 5763 5762
5767 5761 5757 5754 5751 5750 5749 5749 5750 5751 5753 5756 5758 5761 5762 5763 5764 5765 5765 5765 5766 5766 5767 5768 5769 5771 5771 5772 5773 5773 5773 5772 5771 5769 5768 5767 5766 5765 5763 5762 5760 5758 5756 5755
5769 5764 5760 5758 5757 5755 5756 5754 5754 5755 5757 5758 5760 5762 5763 5764 5765 5765 5765 5765 5765 5766 5767 5768 5768 5769 5770 5770 5771 5771 5770 5769 5767 5766 5765 5763 5761 5760 5758 5756 5754 5752 5749 5747
5771 5767 5764 5762 5761 5759 5759 5758 5758 5759 5760 5761 5763 5764 5765 5766 5766 5767 5767 5767 5767 5767 5768 5769 5769 5770 5770 5769 5769 5769 5768 5767 5765 5763 5762 5760 5757 5755 5753 5751 5748 5746 5743 5741
5775 5771 5768 5766 5764 5763 5764 5762 5762 5764 5764 5764 5765 5766 5766 5767 5768 5769 5768 5769 5769 5769 5769 5770 5770 5770 5769 5769 5768 5767 5766 5764 5762 5760 5758 5755 5753 5751 5748 5745 5742 5740 5737 5735
5779 5773 5770 5768 5767 5766 5766 5765 5766 5767 5768 5767 5767 5767 5768 5769 5770 5771 5770 5771 5771 5771 5771 5770 5770 5770 5769 5768 5767 5765 5763 5761 5758 5756 5753 5751 5748 5745 5742 5739 5736 5734 5732 5730
5781 5776 5772 5771 5770 5771 5768 5768 5769 5769 5768 5768 5769 5770 5770 5771 5772 5773 5773 5773 5774 5773 5773 5772 5771 5770 5768 5767 5765 5763 5760 5758 5755 5752 5750 5747 5744 5740 5737 5734 5731 5729 5727 5725
5783 5778 5774 5773 5773 5771 5770 5769 5769 5770 5770 5771 5771 5772 5773 5774 5775 5775 5775 5775 5775 5775 5774 5772 5770 5769 5767 5765 5763 5761 5758 5755 5752 5749 5746 5743 5739 5736 5733 5730 5727 5724 5722 5720
5785 5779 5776 5773 5772 5771 5770 5770 5770 5771 5772 5772 5773 5774 5775 5776 5777 5777 5777 5777 5777 5776 5774 5772 5770 5768 5766 5764 5761 5758 5756 5752 5749 5746 5742 5739 5735 5731 5728 5726 5723 5721 5718 5716
5786 5780 5776 5774 5772 5771 5771 5771 5771 5772 5773 5774 5774 5775 5777 5777 5778 5778 5778 5778 5777 5776 5774 5772 5770 5768 5765 5762 5760 5757 5753 5750 5747 5743 5739 5736 5732 5728 5725 5723 5720 5717 5715 5712
5788 5782 5777 5775 5773 5772 5772 5772 5772 5773 5774 5775 5776 5777 5778 5779 5779 5779 5779 5778 5777 5776 5774 5772 5770 5767 5765 5762 5758 5755 5751 5748 5745 5741 5737 5733 5730 5727 5724 5721 5718 5715 5712 5710